This is the latest recevied weather packets stored in our database for station/object WY7ATH-2. If no packets are shown the sender has not sent any weather packets the latest 10 day(s).
| Time | Temp. | Humidity | Pressure | Rain* | Wind** | Luminosity | Snow |
|---|---|---|---|---|---|---|---|
| 1788074661 | 15.56° C | - | - | 0 mm | 9.39 m/s, 252° | - | - |
| 1788074096 | 15.56° C | - | - | 0 mm | 8.94 m/s, 236° | - | - |
| 1788074064 | 15.56° C | - | - | 0 mm | 8.94 m/s, 236° | - | - |
| 1788073599 | 16.11° C | - | - | 0 mm | 11.18 m/s, 257° | - | - |
| 1788073472 | 16.11° C | - | - | 0 mm | 11.18 m/s, 257° | - | - |
| 1788072866 | 15.56° C | - | - | 0 mm | 8.94 m/s, 252° | - | - |
| 1788072488 | 15.56° C | - | - | 0 mm | 8.49 m/s, 290° | - | - |
| 1788072270 | 15.56° C | - | - | 0 mm | 8.94 m/s, 252° | - | - |
| 1788071674 | 15.56° C | - | - | 0 mm | 8.49 m/s, 290° | - | - |
| 1788071181 | 15.56° C | - | - | 0 mm | 6.71 m/s, 200° | - | - |
| 1788071076 | 15.56° C | - | - | 0 mm | 6.71 m/s, 200° | - | - |
| 1788070683 | 15.56° C | - | - | 0 mm | 5.36 m/s, 312° | - | - |
| 1788070478 | 15.56° C | - | - | 0 mm | 5.36 m/s, 312° | - | - |
| 1788069882 | 15.56° C | - | - | 0 mm | 3.13 m/s, 307° | - | - |
| 1788068154 | 15.56° C | - | - | 0 mm | 4.02 m/s, 259° | - | - |
| 1788068087 | 15.56° C | - | - | 0 mm | 4.92 m/s, 218° | - | - |
| 1788067490 | 15.56° C | - | - | 0 mm | 4.02 m/s, 259° | - | - |
| 1788066893 | 15° C | - | - | 0 mm | 4.92 m/s, 270° | - | - |
| 1788066465 | 15.56° C | - | - | 0 mm | 3.13 m/s, 263° | - | - |
| 1788066296 | 15.56° C | - | - | 0 mm | 3.13 m/s, 263° | - | - |
| 1788065918 | 15.56° C | - | - | 0 mm | 4.02 m/s, 284° | - | - |
| 1788065695 | 15.56° C | - | - | 0 mm | 4.02 m/s, 284° | - | - |
| 1788065098 | 15.56° C | - | - | 0 mm | 7.15 m/s, 210° | - | - |
| 1788063967 | 15.56° C | - | - | 0 mm | 5.36 m/s, 205° | - | - |
| 1788063905 | 15.56° C | - | - | 0 mm | 5.36 m/s, 205° | - | - |
* Rain latest hour (hover to see other rain measurements)
** Current wind speed in m/s (hover to see current wind gust speed)